Weather reports worldwide

Advertisment
Bergamo/Orio al Serio, Italy (16076): temperature & dewpoint: 03.08.2020 22:00:00 - 09.08.2020 22:00:00 (CEST)Bergamo/Orio al Serio, Italy (16076): wind speed: 03.08.2020 22:00:00 - 09.08.2020 22:00:00 (CEST)Bergamo/Orio al Serio, Italy (16076): wind direction: 03.08.2020 22:00:00 - 09.08.2020 22:00:00 (CEST)Bergamo/Orio al Serio, Italy (16076): reduced air pressure: 03.08.2020 22:00:00 - 09.08.2020 22:00:00 (CEST)Bergamo/Orio al Serio, Italy (16076): visibility: 03.08.2020 22:00:00 - 09.08.2020 22:00:00 (CEST)Bergamo/Orio al Serio, Italy (16076): precipitation: 03.08.2020 22:00:00 - 09.08.2020 22:00:00 (CEST)
Date & Time tt [°C] td [°C] ff [km/h] ff [kn] dd ppp [hPa] vv [km] rr [mm]
09.08.2020 22:00:00 - - - - - - - -
09.08.2020 21:00:00 26,0 19,0 4 2 - - 10 -
09.08.2020 20:00:00 28,8 17,4 8 4 SE 1015,0 10 -
09.08.2020 19:00:00 30,0 18,0 11 6 SE - 10 -
09.08.2020 18:00:00 31,0 17,0 11 6 S - 10 -
09.08.2020 17:00:00 31,3 17,2 9 5 SSW 1015,8 10 0,0
09.08.2020 16:00:00 32,0 18,0 13 7 SSW - 10 -
09.08.2020 15:00:00 31,0 18,0 11 6 SSW - 10 -
09.08.2020 14:00:00 30,8 18,9 11 6 SW 1016,8 10 -
09.08.2020 13:00:00 30,0 18,0 8 4 SSW - 10 -
09.08.2020 12:00:00 29,0 18,0 5 3 - - 10 -
09.08.2020 11:00:00 28,1 17,4 8 4 ESE 1018,3 10 0,0
09.08.2020 10:00:00 27,0 18,0 8 4 SE - 10 -
09.08.2020 09:00:00 26,0 18,0 4 2 - - 10 -
09.08.2020 08:00:00 24,1 18,0 2 1 - 1018,6 10 -
09.08.2020 07:00:00 22,0 17,0 8 4 NNE - 10 -
09.08.2020 06:00:00 22,0 17,0 8 4 NNE - 10 -
09.08.2020 05:00:00 22,8 17,0 5 3 NNE 1018,4 10 0,0
09.08.2020 04:00:00 24,0 18,0 8 4 N - 10 -
09.08.2020 03:00:00 23,0 18,0 5 3 NNE - 10 -
09.08.2020 02:00:00 24,0 17,5 2 1 - 1019,1 10 -
09.08.2020 01:00:00 24,0 18,0 11 6 NNE - 10 -
09.08.2020 00:00:00 24,0 18,0 9 5 NNE - 10 -
08.08.2020 23:00:00 24,2 17,8 9 5 N 1019,0 10 0,0
08.08.2020 22:00:00 25,0 18,0 11 6 N - 10 -
08.08.2020 21:00:00 26,0 18,0 4 2 - - 10 -
08.08.2020 20:00:00 28,4 16,9 9 5 SE 1018,4 10 -
08.08.2020 19:00:00 31,0 16,0 8 4 SSW - 10 -
08.08.2020 18:00:00 31,0 16,0 8 4 S - 10 -
08.08.2020 17:00:00 31,3 17,4 8 4 SSW 1018,7 10 0,0
08.08.2020 16:00:00 31,0 16,0 5 3 S - 10 -
08.08.2020 15:00:00 31,0 16,0 13 7 SSW - 10 -
08.08.2020 14:00:00 30,6 15,0 9 5 SW 1019,5 10 -
08.08.2020 13:00:00 30,0 18,0 8 4 SSE - 10 -
08.08.2020 12:00:00 29,0 16,0 9 5 - - 10 -
08.08.2020 11:00:00 28,6 16,8 2 1 - 1020,3 10 0,0
08.08.2020 10:00:00 - - - - - - - -
08.08.2020 09:00:00 25,0 17,0 4 2 - - 10 -
08.08.2020 08:00:00 22,9 17,8 4 2 - 1020,4 10 -
08.08.2020 07:00:00 22,0 17,0 5 3 NNW - 10 -
08.08.2020 06:00:00 23,0 17,0 5 3 N - 10 -
08.08.2020 05:00:00 23,0 18,0 5 3 N 1019,9 10 0,0
08.08.2020 04:00:00 24,0 18,0 8 4 N - 10 -
08.08.2020 03:00:00 24,0 18,0 5 3 N - 10 -
08.08.2020 02:00:00 23,4 18,3 9 5 N 1020,4 10 -
08.08.2020 01:00:00 24,0 19,0 8 4 N - 10 -
08.08.2020 00:00:00 24,0 19,0 5 3 N - 10 -
07.08.2020 23:00:00 25,0 19,0 5 3 N - 10 -
07.08.2020 22:00:00 25,0 19,0 5 3 N - 10 -
07.08.2020 21:00:00 26,0 19,0 4 2 ESE - 10 -
07.08.2020 20:00:00 27,0 17,7 8 4 SE 1019,4 10 -
07.08.2020 19:00:00 28,0 19,0 9 5 SE - 10 -
07.08.2020 18:00:00 28,0 19,0 9 5 SE - 10 -
07.08.2020 17:00:00 28,6 18,2 9 5 SSE 1019,4 10 0,0
07.08.2020 16:00:00 29,0 17,0 5 3 - - 10 -
07.08.2020 15:00:00 28,0 18,0 9 5 SSE - 10 -
07.08.2020 14:00:00 27,7 18,0 8 4 SE 1019,9 10 -
07.08.2020 13:00:00 27,0 20,0 9 5 ESE - 10 -
07.08.2020 12:00:00 26,0 18,0 9 5 ESE - 10 -
07.08.2020 11:00:00 25,6 18,7 8 4 SSE 1020,3 10 0,0
07.08.2020 10:00:00 25,0 18,0 8 4 ESE - 10 -
07.08.2020 09:00:00 24,0 18,0 4 2 - - 10 -
07.08.2020 08:00:00 21,7 17,5 8 4 NNE 1020,0 10 -
07.08.2020 07:00:00 20,0 17,0 5 3 N - 10 -
07.08.2020 06:00:00 19,0 17,0 5 3 NE - 10 -
07.08.2020 05:00:00 19,8 17,6 5 3 ENE 1019,4 10 0,0
07.08.2020 04:00:00 21,0 18,0 2 1 - - 10 -
07.08.2020 03:00:00 22,0 17,0 5 3 - - 10 -
07.08.2020 02:00:00 23,0 16,6 8 4 N 1019,7 10 -
07.08.2020 01:00:00 23,0 16,0 8 4 N - 10 -
07.08.2020 00:00:00 23,0 17,0 5 3 N - 10 -
06.08.2020 23:00:00 21,8 17,0 9 5 N 1019,6 10 0,0
06.08.2020 22:00:00 23,0 18,0 5 3 N - 10 -
06.08.2020 21:00:00 26,0 16,0 8 4 S - 10 -
06.08.2020 20:00:00 27,0 15,1 9 5 S 1017,9 10 -
06.08.2020 19:00:00 28,0 14,0 11 6 SSW - 10 -
06.08.2020 18:00:00 29,0 14,0 13 7 SSW - 10 -
06.08.2020 17:00:00 28,6 13,5 11 6 WSW 1017,2 10 0,0
06.08.2020 16:00:00 29,0 13,0 11 6 SSW - 10 -
06.08.2020 15:00:00 28,0 14,0 13 7 SSW - 10 -
06.08.2020 14:00:00 27,5 14,6 9 5 W 1017,9 10 -
06.08.2020 13:00:00 27,0 15,0 9 5 WSW - 10 -
06.08.2020 12:00:00 26,0 15,0 5 3 NW - 10 -
06.08.2020 11:00:00 24,7 14,4 8 4 W 1018,2 10 0,0
06.08.2020 10:00:00 23,0 14,0 5 3 NW - 10 -
06.08.2020 09:00:00 22,0 14,0 5 3 N - 10 -
06.08.2020 08:00:00 19,7 14,4 8 4 N 1017,4 10 -
06.08.2020 07:00:00 17,0 14,0 8 4 N - 10 -
06.08.2020 06:00:00 17,0 14,0 5 3 NNW - 10 -
06.08.2020 05:00:00 17,0 13,9 8 4 N 1016,7 10 0,0
06.08.2020 04:00:00 18,0 14,0 5 3 N - 10 -
06.08.2020 03:00:00 18,0 14,0 8 4 N - 10 -
06.08.2020 02:00:00 17,9 14,3 8 4 NNE 1016,8 10 -
06.08.2020 01:00:00 19,0 14,0 9 5 N - 10 -
06.08.2020 00:00:00 19,0 15,0 9 5 N - 10 -
05.08.2020 23:00:00 18,9 15,0 9 5 N 1016,2 10 0,0
05.08.2020 22:00:00 20,0 15,0 4 2 - - 10 -
05.08.2020 21:00:00 23,0 13,0 8 4 S - 10 -
05.08.2020 20:00:00 24,5 13,0 9 5 S 1014,5 10 -
05.08.2020 19:00:00 25,0 13,0 11 6 S - 10 -
05.08.2020 18:00:00 26,0 12,0 9 5 SW - 10 -
05.08.2020 17:00:00 26,0 11,8 8 4 S 1013,8 10 0,0
05.08.2020 16:00:00 26,0 13,0 5 3 SSE - 10 -
05.08.2020 15:00:00 26,0 13,0 16 9 SE - 10 -
05.08.2020 14:00:00 25,4 10,7 11 6 WSW 1014,3 10 -
05.08.2020 13:00:00 25,0 11,0 11 6 SW - 10 -
05.08.2020 12:00:00 25,0 10,0 5 3 - - 10 -
05.08.2020 11:00:00 23,8 11,2 4 2 - 1014,1 10 0,0
05.08.2020 10:00:00 22,0 10,0 4 2 - - 10 -
05.08.2020 09:00:00 20,0 12,0 5 3 NNE - 10 -
05.08.2020 08:00:00 17,8 10,6 8 4 N 1013,6 10 -
05.08.2020 07:00:00 15,0 11,0 9 5 NNE - 10 -
05.08.2020 06:00:00 15,0 11,0 8 4 N - 10 -
05.08.2020 05:00:00 14,9 11,0 8 4 N 1012,3 10 0,0
05.08.2020 04:00:00 15,0 12,0 11 6 NNE - 10 -
05.08.2020 03:00:00 17,0 13,0 9 5 N - 10 -
05.08.2020 02:00:00 16,0 13,7 8 4 ENE 1011,7 10 -
05.08.2020 01:00:00 17,0 14,0 8 4 N - 10 -
05.08.2020 00:00:00 17,0 14,0 8 4 N - 10 -
04.08.2020 23:00:00 17,5 14,9 9 5 N 1010,5 10 0,0
04.08.2020 22:00:00 19,0 15,0 5 3 NNE - 10 -
04.08.2020 21:00:00 22,0 14,0 8 4 S - 10 -
04.08.2020 20:00:00 22,8 13,3 9 5 S 1009,3 10 -
04.08.2020 19:00:00 24,0 13,0 11 6 SSE - 10 -
04.08.2020 18:00:00 24,0 12,0 9 5 SW - 10 -
04.08.2020 17:00:00 23,8 12,1 9 5 WSW 1007,9 10 0,0
04.08.2020 16:00:00 23,0 12,0 13 7 SW - 10 -
04.08.2020 15:00:00 23,0 12,0 9 5 - - 10 -
04.08.2020 14:00:00 21,8 13,1 9 5 SSW 1007,7 10 -
04.08.2020 13:00:00 21,0 15,0 8 4 SSE - 10 -
04.08.2020 12:00:00 19,0 15,0 11 6 SE - 10 -
04.08.2020 11:00:00 18,8 13,8 9 5 ESE 1006,2 10 0,0
04.08.2020 10:00:00 18,0 14,0 8 4 N - 10 -
04.08.2020 09:00:00 16,0 15,0 5 3 NNE - 10 -
04.08.2020 08:00:00 15,9 14,6 5 3 NNE 1004,0 10 -
04.08.2020 07:00:00 16,0 14,0 8 4 NNW - 10 -
04.08.2020 06:00:00 16,0 15,0 9 5 N - 10 -
04.08.2020 05:00:00 16,4 14,6 5 3 N 1003,8 10 0,0
04.08.2020 04:00:00 17,0 15,0 8 4 N - 10 -
04.08.2020 03:00:00 17,0 16,0 4 2 - - 10 -
04.08.2020 02:00:00 17,4 15,2 9 5 N 1004,0 10 -
04.08.2020 01:00:00 17,0 15,0 8 4 N - 10 -
04.08.2020 00:00:00 17,0 15,0 8 4 NW - 10 -
03.08.2020 23:00:00 17,2 16,0 9 5 WSW 1004,4 10 0,0
03.08.2020 22:00:00 17,0 17,0 8 4 N - 10 -

tt = temperature
td = dewpoint
ff = wind speed
dd = wind direction
ppp = reduced air pressure
vv = visibility
rr = precipitation

Next stations